CAPE
0 0 0 0 0 0 0 0 0 0 0 0 0 0 0 0 0 0 0 0 0 0 0 0 9 175 313 9 49 9 0 10 0 3 0 0 0 51 136 821 969 967 1052 1330 1281 1237 1408 1183 1211 1210 1236 1234 1460 1576 1302 1359 1167 1249 1598 1793 2011 2049 2095 2112 2267 2365 2295 2304 2411 2458 2460 2579 2582 2510 2460 2470 2456 2446 2440 2334 2242 2283 2321 2363 2457 2471 2490
0 0 0 0 0 0 0 0 0 0 0 0 0 0 0 0 0 0 0 0 0 0 0 0 0 1 0 0 0 0 0 0 173 16 79 0 0 0 14 392 627 1156 1192 1274 1426 1396 1396 1214 1534 1239 1362 1508 1335 1298 1353 1434 1363 1337 1516 1955 2182 1877 2092 2355 2608 2615 2664 2654 2744 2692 2586 2662 2825 2735 2640 2632 2622 2636 2640 2501 2422 2364 2380 2370 2333 2400 2393
0 0 0 0 0 0 0 0 0 0 0 0 0 0 0 0 0 0 0 0 0 0 0 0 0 0 0 0 0 0 0 6 1 46 34 47 30 0 7 109 274 743 1107 1173 1378 1409 1597 1484 1506 1546 1393 1354 1320 1159 1252 1283 1474 1388 1550 2146 1898 1908 2026 2301 2445 2646 2702 2671 2648 2703 2647 2731 2709 2741 2739 2770 2780 2792 2711 2630 2480 2533 2507 2446 2280 2310 2306
0 0 0 0 0 0 0 0 0 0 0 0 0 0 0 0 0 0 0 0 0 0 0 0 0 0 0 0 0 3 4 0 13 1 43 303 1033 964 652 250 23 119 363 896 1036 1165 1028 1049 1267 1394 1618 1502 1372 1188 1218 1299 1362 1391 1496 1671 1706 2148 2306 2544 2810 2746 2616 2715 2754 2787 2793 2748 2774 2782 2721 2722 2780 2804 2746 2655 2646 2594 2519 2498 2508 2319 2280
0 0 0 0 0 0 0 0 0 0 0 0 0 0 0 0 0 0 0 0 0 0 0 0 0 0 0 0 0 0 0 5 0 0 10 50 122 432 981 713 505 100 14 157 1001 786 743 934 931 1062 1384 1264 1518 1448 1448 1485 1556 1435 1528 1614 1942 2269 2258 2458 2640 2763 2814 2834 2808 2851 2900 2788 2758 2767 2827 2816 2813 2790 2727 2766 2642 2614 2643 2554 2536 2382 2268
0 0 0 0 0 0 0 0 0 0 0 0 0 0 0 0 0 0 0 0 0 0 0 0 0 0 0 0 3 0 1 77 374 0 14 5 9 79 249 448 584 734 602 246 121 529 905 931 846 840 1034 1250 1596 1482 1519 1774 1662 1815 1944 1789 2018 2372 2744 2798 2854 2854 2857 2744 2769 2871 2927 2892 2898 2905 2844 2827 2770 2750 2723 2736 2697 2647 2548 2616 2570 2472 2292
0 0 0 0 0 0 0 0 0 0 0 0 0 0 0 0 0 0 0 0 0 0 0 0 0 0 0 283 205 33 284 828 704 1408 1072 1253 972 930 1364 1432 1045 1005 1022 961 756 547 418 381 642 840 945 1178 1512 1512 1576 1631 1895 2108 2307 2132 2371 2521 2695 2754 2901 2909 2950 2885 2883 2945 2967 2994 2991 2951 2870 2872 2849 2807 2698 2699 2707 2618 2573 2581 2503 2383 2230
0 0 0 0 0 0 0 0 0 0 0 0 0 0 0 0 0 0 0 0 0 0 0 0 0 0 392 614 1820 1793 1670 1764 1879 1686 1450 1550 1634 1704 2114 2250 2428 2577 2206 1582 866 641 510 510 636 788 894 910 1045 1213 1306 1520 1844 2284 2356 2632 2496 2814 2840 2798 2850 2874 2870 2961 3004 3019 2982 2944 2974 2956 2968 2985 2987 2914 2787 2729 2670 2612 2560 2551 2561 2530 2369
0 0 0 0 0 0 0 0 0 0 0 0 0 0 0 0 0 8 74 303 609 484 81 0 0 1 6 22 489 1332 1622 1776 1738 1794 1980 1840 1998 1871 1922 1842 1871 2094 2256 2282 1909 1088 592 435 524 677 697 833 999 1161 1350 1519 2560 2344 2476 2725 2662 2940 2761 2742 2694 2817 2833 2949 3028 3019 3004 3019 3022 2948 2997 3096 3110 3014 2846 2832 2698 2576 2311 2262 2308 2563 2408
0 0 0 0 0 0 0 0 0 0 0 0 0 0 0 0 1 0 10 128 473 846 1167 780 0 2 0 0 0 983 1390 1602 1584 1374 1404 1374 1477 1581 1668 1817 1982 2294 2393 2308 2008 1206 544 582 523 784 800 1047 1459 1808 1789 1809 2093 2290 2635 2551 2678 2842 2745 2711 2751 2873 3021 3077 3108 3036 3050 3057 3087 3036 3011 3064 3072 2995 2972 2878 2709 2667 2548 2501 2614 2497 2296
0 0 0 0 0 0 1 5 0 0 0 1 4 0 0 0 0 0 1 46 188 409 692 892 34 0 0 0 0 1178 1706 1596 1361 1354 1387 1464 1578 1877 1685 1950 2180 2139 2340 2219 1968 1122 907 644 996 1530 1455 1531 1983 2198 2341 2144 2555 2773 2554 2497 2658 2717 2838 2850 3133 3278 3279 3244 3203 3190 3201 3220 3101 3100 3037 3090 3033 2970 2890 2866 2796 2750 2549 2649 2492 2450 2516
0 0 0 0 0 0 0 6 0 0 33 5 19 0 0 0 0 0 0 3 37 128 340 499 301 0 0 0 76 1646 1700 1274 1205 1173 1513 2016 2180 1865 1863 1898 1997 2374 2463 2304 1867 1296 1201 2380 2075 2062 1901 2122 1952 2458 2526 2256 2122 2294 2478 2581 2847 2813 2806 3101 3368 3208 2962 3116 3225 3252 3318 3178 3134 3178 3197 3088 3105 3038 2953 2898 2912 2756 2685 2509 2560 2657 2383
0 0 0 0 0 0 0 2 13 62 37 22 0 0 44 0 1 0 0 0 2 25 118 396 341 100 433 954 900 1194 1124 1000 1007 1209 1542 2202 2250 1972 1601 1663 2034 2589 2569 2613 2434 2237 2544 2904 1798 2035 2350 2204 2444 2684 2745 2589 2430 2286 2586 2863 3062 3124 3258 2972 2922 3352 3422 3556 3468 3491 3388 3390 3174 3176 3160 3106 3098 3120 3000 2887 2849 2590 2658 2724 2570 2457 2432
0 0 0 0 0 25 23 30 7 79 0 0 0 35 0 0 0 0 0 1 0 1 2 290 436 664 609 840 788 783 808 711 644 976 1053 1578 2277 2416 2182 1970 1975 2366 2194 2127 2122 2098 2233 2378 2184 2037 2400 2712 2986 2875 2691 2647 2845 2492 2827 2890 2962 3143 3256 3086 3026 3329 3482 3421 3506 3534 3483 3494 3515 3345 3241 3166 3156 3157 3030 3060 2971 3086 3084 2655 2870 2686 2714
0 0 0 0 0 1 15 140 24 108 0 24 35 14 24 0 0 0 0 0 0 0 1 120 415 358 296 408 633 382 356 445 429 451 554 767 1522 2322 2571 2483 2256 2294 2145 1878 1654 1617 1738 1956 2318 2256 1943 2776 2916 2748 3140 3410 3019 2658 2789 2869 3213 3250 3381 3153 3233 3379 3579 3716 3686 3594 3686 3644 3563 3529 3570 3467 3444 3430 3432 3338 3188 2984 3090 3270 3098 2800 2978
5 0 0 0 30 59 0 109 70 171 124 66 42 12 23 1 0 0 0 0 0 33 0 9 201 105 98 78 610 262 217 302 446 501 656 600 824 1052 1773 2430 2667 2708 2754 2643 2408 1960 1575 1576 1920 2490 3446 3133 3089 3162 2692 2716 3324 2922 2740 3069 3427 3311 3376 3437 3592 3453 3572 3626 3694 3690 3748 3634 3612 3607 3675 3617 3582 3584 3554 3474 3316 3290 3489 3400 3306 3044 2953
12 26 53 40 4 0 0 22 20 104 95 98 104 122 57 59 20 0 0 0 166 78 18 29 31 124 34 41 267 388 315 315 482 558 614 730 748 883 1077 1558 2306 2738 3017 2962 2922 2829 2514 2138 1899 1751 2145 2436 2245 1985 1958 2318 3041 3444 3031 3105 3442 3401 3242 3191 3368 3397 3590 3657 3691 3714 3718 3753 3757 3778 3804 3760 3710 3788 3654 3492 3455 3382 3364 3070 3332 3113 2880
3 0 0 0 0 0 14 49 151 129 99 87 151 180 208 129 100 0 80 172 136 338 389 475 388 364 330 118 130 282 291 367 424 626 745 873 939 895 981 1073 1347 1607 2136 2622 2790 2982 3156 3104 2882 2665 2427 2069 1986 2174 2418 2354 2616 3379 3243 3049 3044 3404 3568 3631 3541 3514 3538 3531 3696 3778 3853 3788 3878 3924 3873 3877 3812 3872 3669 3573 3430 3159 3175 3234 3188 3117 3224
0 0 182 31 0 24 4 16 91 186 162 111 154 202 190 168 124 98 178 242 384 123 409 370 289 312 254 229 416 658 586 408 578 596 699 761 919 1050 1107 1058 1122 1246 1280 1362 1327 1578 2060 2778 3117 3276 3340 3248 3120 3014 3082 3086 3088 3098 3302 3262 3106 3116 3023 3084 2953 3016 3308 3474 3626 3776 3923 3927 3908 3905 3917 4001 3905 3858 3800 3599 3516 3344 3172 3254 3181 3016 2998
1 0 0 0 0 0 0 3 38 54 142 117 78 164 183 181 131 116 133 184 322 392 454 458 416 376 322 191 320 533 724 779 758 723 752 846 904 970 1168 1387 1464 1378 1298 1346 1196 1125 1066 1179 1315 1605 2149 2737 2692 3156 3203 3337 3400 3399 3387 3306 3164 3152 3113 2938 2956 2827 2775 2421 2436 2968 3346 3495 3605 3716 3761 3779 3826 3844 3722 3614 3540 3295 3211 3195 3068 2994 2972
0 0 0 0 0 0 0 0 4 0 97 259 108 92 131 156 108 115 101 112 225 401 529 582 567 537 503 488 532 726 954 976 928 778 988 882 798 854 1158 1209 1391 1400 1301 1123 1039 996 896 1056 1014 1028 1281 1330 1462 1779 1926 2111 2462 2347 2952 3382 3420 3350 3138 3058 2918 3001 3000 2996 2787 2746 2951 3222 3352 3649 3756 3760 3730 3776 3751 3776 3788 3678 3686 3476 3321 3409 3386
2 0 0 42 2 0 152 172 64 29 208 313 170 182 141 88 48 82 81 74 106 243 367 568 608 604 658 654 616 796 1034 1096 1106 1159 1236 1146 969 911 1037 1266 1392 1353 1155 982 851 827 973 1106 1155 1080 1206 1219 1390 1381 1717 2250 2534 2883 2826 2845 2918 2962 3260 3361 3331 3257 3233 3249 3122 3162 2846 2697 3013 3393 3277 3197 3361 3416 3674 3523 3352 3243 3232 3597 3684 3577 3437
0 0 3 19 33 16 0 4 2 1 6 203 284 172 166 84 38 43 7 43 77 140 135 352 640 635 685 730 819 869 930 1008 1094 1168 1225 1348 1130 945 1005 1183 1190 1237 1106 1003 1048 974 986 1044 1020 1054 1050 1076 1153 1246 1498 1817 1920 2182 2385 2350 2194 2087 2092 1991 1840 2246 2474 2884 3044 3140 3149 3057 2968 3116 3338 2776 2554 2575 2894 2960 3015 3034 2972 2930 2965 2976 2975
1 0 0 0 0 0 0 4 0 0 2 47 336 153 98 95 30 43 18 8 63 0 50 0 287 512 624 700 739 808 834 896 1002 1027 1138 1183 1078 875 914 904 968 1078 1027 1103 1330 1445 1552 1476 1192 1042 932 1060 1150 1211 1407 1422 1632 1645 1826 1924 1846 1664 1525 1424 1376 1385 1620 1546 1504 1434 1742 2221 2671 2892 2964 2948 2840 2650 2569 2594 2566 2725 2737 2734 2716 2720 2716
10 0 4 9 8 8 5 0 0 0 0 0 271 252 196 118 66 51 12 18 2 0 0 0 82 200 490 528 608 675 680 686 698 722 747 914 1081 1092 1003 1027 960 874 1082 1250 1373 1451 1566 1516 1314 1267 1244 1216 1228 1325 1550 1489 1834 1701 1780 1878 1740 1520 1335 1124 1146 940 997 1003 1010 1147 1297 1109 1344 1520 1765 1913 2107 2477 2469 2687 2742 2600 2488 2461 2502 2514 2568
2 9 7 2 2 2 0 1 2 0 0 0 235 250 220 129 42 70 15 4 8 0 0 2 25 139 221 357 433 506 529 566 552 560 551 634 830 1079 1209 1245 1202 1118 912 1006 1159 1143 1094 1112 1178 1229 1248 1182 1210 1346 1387 1520 1714 1933 1864 1702 1598 1519 1358 1147 895 828 831 708 664 758 748 730 785 794 968 1008 1298 1475 1488 1690 1848 2027 1998 2123 2279 2280 2226
0 1 2 2 3 0 2 8 6 0 37 27 262 397 262 32 53 70 24 6 0 0 3 2 4 4 0 17 114 472 528 501 474 456 474 541 736 936 1134 1165 1074 1043 1114 1167 1216 1220 1248 1212 1106 1014 1012 1102 1178 1196 1354 1510 1622 1717 1856 1718 1621 1153 812 810 692 562 496 486 458 460 391 390 423 469 577 556 529 552 708 822 852 1009 1278 1271 1549 1866 1813
0 2 5 29 12 10 24 8 6 5 115 72 309 297 206 47 19 42 32 9 0 0 4 5 4 1 0 0 277 410 539 575 484 420 382 378 473 589 744 861 917 960 948 948 1023 1028 1033 967 923 862 877 932 979 1027 1042 1133 1353 1310 1252 1096 1208 1102 942 757 581 459 369 287 247 209 210 268 171 157 169 175 177 260 266 334 333 484 705 646 489 660 955
8 4 13 14 29 38 92 210 89 30 92 190 320 305 24 43 21 31 2 5 0 4 0 0 0 0 1 2 15 132 272 371 437 422 355 335 318 341 368 460 544 598 594 547 552 579 578 568 556 571 591 710 776 841 908 954 1040 1006 1037 1110 986 844 706 492 352 329 203 186 180 104 8 106 137 156 105 80 75 75 68 23 18 0 0 0 44 150 331
20 9 30 52 146 48 45 54 62 48 189 248 231 106 36 37 14 46 8 4 64 52 4 0 0 0 5 10 7 14 8 21 90 171 224 276 263 228 215 230 238 297 336 390 446 446 437 399 380 392 397 506 584 687 754 789 824 871 920 926 870 823 732 587 422 318 308 345 388 117 128 104 105 67 32 24 2 0 0 0 1 2 0 0 0 0 37
30 78 85 106 192 60 53 28 73 145 194 323 276 172 22 34 19 43 21 1 10 56 64 62 20 24 18 5 2 3 4 3 5 12 16 19 18 23 86 194 58 116 29 179 128 154 245 256 274 272 286 386 398 400 435 478 613 722 771 732 767 793 761 677 505 389 345 446 487 397 125 41 47 6 1 0 2 0 0 0 1 2 0 0 1 0 4
87 106 206 152 343 273 134 71 94 120 275 310 280 198 46 177 157 25 40 102 128 167 133 102 12 0 18 12 5 2 2 2 2 4 0 4 5 3 2 1 1 2 2 36 266 274 280 260 181 207 298 296 292 312 305 290 340 473 536 592 622 650 719 687 573 484 469 555 613 515 253 50 12 2 0 2 2 0 163 0 0 4 0 0 0 17 261
68 130 96 117 321 225 84 32 154 202 236 218 394 406 434 225 332 362 258 198 241 210 180 119 84 33 14 11 16 10 3 2 2 2 2 1 1 2 1 0 1 4 4 7 40 99 60 46 63 78 178 212 198 168 191 253 251 378 550 659 708 686 682 730 716 611 532 590 638 650 568 386 14 12 1 0 0 91 111 171 149 4 2 2 71 225 98
65 74 357 484 348 102 27 154 331 315 388 477 448 370 387 522 547 451 300 262 222 162 105 110 85 69 48 30 20 9 2 0 0 1 2 4 3 2 2 1 1 1 1 3 8 20 34 62 48 48 64 100 119 97 114 196 221 244 308 529 767 792 721 772 804 654 576 592 676 686 753 744 588 406 364 400 206 4 0 0 138 2 0 0 262 298 244
267 8 182 448 371 174 57 294 398 347 317 386 366 354 364 443 521 505 348 350 268 132 84 89 64 42 19 14 1 0 0 0 0 0 0 0 0 0 0 0 1 0 1 2 6 7 49 95 82 36 27 42 73 91 107 103 129 219 219 242 246 582 534 456 630 675 564 636 768 755 607 584 639 700 685 580 495 380 207 254 257 80 0 0 232 223 175
175 162 328 383 385 340 85 287 404 483 422 464 338 238 247 399 475 413 337 369 242 136 109 86 77 68 32 1 0 0 0 0 0 0 0 0 0 0 0 0 0 0 0 1 2 8 12 41 43 13 10 26 34 114 128 100 123 84 148 227 182 151 324 334 402 575 606 601 674 626 666 629 514 572 606 642 628 602 440 403 411 446 414 126 195 256 178
438 363 316 328 354 242 140 182 164 533 550 393 58 280 429 473 354 414 320 257 140 122 84 48 63 22 0 0 0 0 0 0 0 0 0 0 0 0 0 0 0 0 0 0 1 0 0 1 13 0 0 1 5 21 10 6 22 21 38 60 53 64 36 49 66 120 163 289 400 588 568 590 494 440 474 413 364 386 523 541 482 500 476 405 365 44 192
285 408 216 161 119 130 108 184 324 536 552 474 316 319 356 432 272 174 80 64 54 60 0 52 34 2 0 0 0 0 0 0 0 0 0 0 0 0 0 0 0 0 1 2 1 0 0 0 0 0 10 6 2 2 0 0 0 0 0 0 0 0 1 2 2 3 6 26 66 107 194 497 540 586 442 0 0 0 100 342 525 603 534 439 340 239 36
65 66 128 177 168 125 195 241 266 298 266 71 114 276 135 276 204 194 146 50 0 3 10 5 10 8 9 2 0 0 0 0 0 0 1 2 2 1 2 4 4 3 3 2 0 0 0 0 0 0 0 0 0 0 0 0 0 1 1 0 0 0 0 0 0 3 4 6 6 8 17 23 232 463 405 383 80 0 0 0 0 308 430 246 246 104 11
61 65 69 105 76 82 46 39 73 144 196 122 189 271 290 326 308 224 112 29 2 1 0 0 5 1 0 0 0 1 0 0 0 0 0 0 0 0 0 0 6 10 12 11 2 1 0 0 0 0 0 0 0 0 0 0 0 0 1 2 2 0 0 0 0 0 0 2 4 5 7 4 5 1 44 123 32 91 0 0 52 83 50 82 63 81 10
42 14 10 91 58 56 42 36 66 147 35 156 195 266 86 65 47 64 55 19 1 3 0 1 1 0 0 0 0 0 0 0 0 0 0 0 0 0 0 1 8 7 8 11 11 4 0 0 0 0 0 0 0 0 0 0 0 0 0 0 0 0 0 2 2 2 2 2 4 6 8 12 8 6 4 6 2 207 144 112 83 39 16 13 12 3 3
2 6 15 20 17 10 21 36 24 38 21 18 50 92 43 7 12 30 6 6 1 0 0 0 0 0 0 0 0 0 0 0 0 0 0 0 0 0 0 0 2 7 19 8 3 1 0 0 0 0 0 0 0 0 0 0 0 0 0 0 0 0 0 0 1 4 6 7 7 7 10 9 10 6 2 53 16 14 142 69 34 26 11 26 18 0 60
12 10 12 6 3 5 1 5 12 4 11 30 36 46 25 24 38 60 64 50 30 8 0 0 0 0 0 0 0 0 0 0 0 0 0 0 0 0 1 0 0 4 4 1 0 0 0 0 0 0 0 0 0 0 0 0 0 0 0 0 0 0 0 0 0 0 0 1 2 3 4 5 5 4 3 1 29 25 22 74 42 23 20 44 54 50 71
14 8 10 10 7 2 0 8 18 13 11 17 18 16 12 16 32 57 80 78 60 42 28 21 14 0 0 0 0 0 0 0 0 0 0 0 0 0 0 0 0 0 0 0 0 0 0 0 0 0 0 0 0 0 0 0 0 0 0 0 0 0 0 0 0 0 0 0 0 0 1 2 2 3 5 7 7 6 2 12 20 31 43 48 41 52 86
7 13 17 18 11 10 15 19 17 10 6 2 0 0 0 0 0 0 0 0 0 0 0 0 0 0 0 0 0 0 0 0 0 0 0 0 0 0 0 0 0 0 0 0 0 0 0 0 0 0 0 0 0 0 0 0 0 0 0 0 0 0 0 0 0 0 0 0 0 0 0 1 2 7 2 4 3 4 7 8 4 14 10 5 4 10 17
4 5 5 2 1 1 0 0 0 0 0 0 0 0 1 4 5 3 2 2 4 2 0 0 0 0 0 0 0 0 0 0 0 0 0 0 0 0 0 0 0 0 0 0 0 0 0 0 0 0 0 0 0 0 0 0 0 0 0 0 0 0 0 0 0 0 0 0 0 0 0 0 0 2 5 4 4 5 3 4 1 8 6 6 8 9 13
3 1 0 0 0 0 0 0 0 0 0 0 0 0 0 2 4 2 1 0 0 0 0 0 0 0 0 0 0 0 0 0 0 0 0 0 0 0 0 0 0 0 0 0 0 0 0 0 0 0 0 0 0 0 0 0 0 0 0 0 0 0 0 0 0 0 0 0 0 0 0 0 0 0 0 0 1 4 4 2 2 12 22 14 14 20 24
0 0 0 0 0 0 0 0 0 0 0 0 0 0 0 0 0 0 0 0 0 0 0 0 0 0 0 0 0 0 0 0 0 0 0 0 0 0 0 0 0 0 0 0 0 0 0 0 0 0 0 0 0 0 0 0 0 0 0 0 0 0 0 0 0 0 0 0 0 0 0 0 0 0 0 0 0 0 18 32 25 18 17 16 30 44 38
1 6 4 0 0 0 0 0 0 0 0 0 0 0 0 0 0 0 0 0 0 0 0 0 0 0 0 0 0 0 0 0 0 0 0 0 0 0 0 0 0 0 0 0 0 0 0 0 0 0 0 0 0 0 0 0 0 0 0 0 0 0 0 0 0 0 0 0 0 0 0 0 0 0 0 0 0 0 0 0 3 15 36 42 45 43 70
0 1 2 2 1 0 0 0 0 0 0 0 0 0 2 2 0 0 0 0 0 0 0 0 0 0 0 0 0 0 0 0 0 0 0 0 0 0 0 0 0 0 0 0 0 0 0 0 0 0 0 0 0 0 0 0 0 0 0 0 0 0 0 0 0 0 0 0 0 0 0 0 0 0 0 0 0 0 0 0 0 0 5 16 42 67 97
0 0 0 0 0 0 0 0 0 0 0 0 0 0 1 0 0 0 0 0 0 0 0 0 0 0 0 0 0 0 0 0 0 0 0 0 0 0 0 0 0 0 0 0 0 0 0 0 0 0 0 0 0 0 0 0 0 0 0 0 0 0 0 0 0 0 0 0 0 0 0 0 0 0 0 0 0 0 0 0 0 0 2 2 1 5 15
0 0 0 0 0 0 0 0 0 0 0 0 0 0 0 0 0 0 0 0 0 0 0 0 0 0 0 0 0 0 0 0 0 0 0 0 0 0 0 0 0 0 0 0 0 0 0 0 0 0 0 0 0 0 0 0 0 0 0 0 0 0 0 0 0 0 0 0 0 0 0 0 0 0 0 0 0 0 0 0 0 0 0 0 0 0 0
Wind_Speed
nan nan nan nan nan nan nan nan nan nan nan nan nan nan nan nan nan nan nan nan nan nan nan nan nan 17 15 nan nan nan nan nan nan nan nan nan nan nan 20 22 22 22 22 20 18 14 14 15 16 14 13 12 11 12 9 11 11 11 15 18 18 17 14 11 11 13 15 13 12 12 13 14 15 15 16 17 18 19 21 22 22 23 21 19 18 17 16
nan nan nan nan nan nan nan nan nan nan nan nan nan nan nan nan nan nan nan nan nan nan nan nan nan nan nan nan nan nan nan nan 19 nan nan nan nan nan nan 18 19 19 19 20 19 17 16 15 16 15 14 12 11 11 11 13 13 13 17 18 18 15 12 10 10 14 16 15 14 14 13 13 14 15 16 17 19 20 21 23 23 22 22 20 19 18 18
nan nan nan nan nan nan nan nan nan nan nan nan nan nan nan nan nan nan nan nan nan nan nan nan nan nan nan nan nan nan nan nan nan nan nan nan nan nan nan 18 19 21 20 19 20 18 15 15 16 15 13 12 11 10 11 14 15 16 18 18 17 15 11 9 11 14 15 13 14 13 12 11 12 14 16 17 18 20 21 22 23 22 22 21 20 18 19
nan nan nan nan nan nan nan nan nan nan nan nan nan nan nan nan nan nan nan nan nan nan nan nan nan nan nan nan nan nan nan nan nan nan nan 19 18 18 19 20 nan 21 20 18 17 14 12 13 16 15 14 14 13 10 11 14 15 18 17 17 16 14 12 15 15 15 14 16 16 15 14 13 13 14 15 17 19 20 21 23 24 23 22 21 20 19 18
nan nan nan nan nan nan nan nan nan nan nan nan nan nan nan nan nan nan nan nan nan nan nan nan nan nan nan nan nan nan nan nan nan nan nan nan 20 20 21 19 19 nan nan 17 15 12 13 15 15 13 15 16 14 12 11 12 16 17 17 17 16 14 15 17 16 15 15 16 15 15 15 15 16 16 16 16 18 20 22 23 24 24 23 20 19 18 18
nan nan nan nan nan nan nan nan nan nan nan nan nan nan nan nan nan nan nan nan nan nan nan nan nan nan nan nan nan nan nan nan 27 nan nan nan nan nan 21 19 18 18 18 17 16 14 14 14 13 15 17 15 15 16 16 22 19 15 16 16 16 17 18 19 18 17 16 16 15 14 16 17 18 19 18 17 17 18 20 21 22 22 22 21 18 18 18
nan nan nan nan nan nan nan nan nan nan nan nan nan nan nan nan nan nan nan nan nan nan nan nan nan nan nan 29 38 nan 32 32 29 28 27 27 25 24 23 21 20 20 19 17 16 16 15 15 17 18 16 14 18 21 23 23 20 18 18 17 19 21 20 18 18 17 16 16 16 16 17 19 20 20 19 18 18 18 20 21 22 21 20 20 18 17 18
nan nan nan nan nan nan nan nan nan nan nan nan nan nan nan nan nan nan nan nan nan nan nan nan nan nan 34 37 36 35 33 32 30 29 28 28 28 26 26 24 23 22 22 20 18 17 19 19 18 17 16 18 19 19 21 22 23 22 22 22 20 24 22 20 18 18 18 18 18 18 18 19 20 20 19 20 20 21 21 22 22 20 19 19 18 17 16
nan nan nan nan nan nan nan nan nan nan nan nan nan nan nan nan nan nan nan 49 44 41 nan nan nan nan nan nan 32 34 32 32 32 30 31 33 31 31 29 26 25 25 23 22 21 20 19 18 18 18 20 22 21 21 22 21 25 24 25 24 21 21 21 20 18 19 20 21 21 21 21 20 20 21 21 21 21 21 21 22 23 23 21 20 17 16 16
nan nan nan nan nan nan nan nan nan nan nan nan nan nan nan nan nan nan nan 50 47 43 41 40 nan nan nan nan nan 34 33 35 34 35 35 35 34 33 32 30 28 27 26 25 23 22 20 19 19 22 23 25 27 26 24 25 26 24 26 24 22 21 19 20 21 22 23 24 24 24 23 21 22 22 23 23 24 25 25 25 24 23 22 20 18 18 18
nan nan nan nan nan nan nan nan nan nan nan nan nan nan nan nan nan nan nan nan 50 46 43 42 nan nan nan nan nan 39 40 40 40 39 39 38 37 37 36 35 34 33 31 29 28 26 24 22 23 25 25 27 28 26 27 28 29 27 24 23 24 23 22 23 25 26 27 27 26 25 23 21 22 24 25 25 26 27 27 27 26 24 25 24 21 20 19
nan nan nan nan nan nan nan nan nan nan nan nan nan nan nan nan nan nan nan nan nan 48 45 41 38 nan nan nan nan 49 47 46 46 43 42 41 40 40 40 40 37 36 37 37 38 35 31 32 31 27 28 29 27 28 28 28 25 22 21 22 25 27 27 27 28 28 28 28 27 26 25 24 24 26 28 29 28 29 29 28 28 27 27 25 24 24 23
nan nan nan nan nan nan nan nan nan nan nan nan nan nan nan nan nan nan nan nan nan nan 46 43 39 nan 44 43 42 46 48 48 48 47 45 43 41 41 42 42 40 40 43 45 44 42 38 35 33 31 32 31 31 32 32 30 25 23 27 30 32 32 33 31 29 28 29 29 29 29 30 29 29 29 30 29 30 30 30 30 27 26 27 26 26 25 25
nan nan nan nan nan nan nan nan nan nan nan nan nan nan nan nan nan nan nan nan nan nan nan 42 37 41 45 43 43 46 48 50 48 48 47 46 44 42 42 42 43 45 47 48 47 46 43 41 40 37 35 34 35 36 34 31 31 32 33 35 34 34 34 31 29 28 29 30 30 31 32 33 32 31 31 31 33 34 33 32 31 29 28 27 27 25 25
nan nan nan nan nan nan nan 79 nan 72 nan nan nan nan nan nan nan nan nan nan nan nan nan 44 41 42 43 44 44 46 48 49 50 49 49 47 47 46 44 44 46 48 50 51 52 50 46 46 44 41 39 40 39 38 40 43 40 36 34 33 34 34 34 32 31 30 32 33 33 33 34 34 34 34 35 36 37 37 36 36 34 31 29 30 27 25 27
nan nan nan nan nan nan nan 81 nan 75 75 nan nan nan nan nan nan nan nan nan nan nan nan nan 43 44 nan nan 47 48 49 49 50 51 50 49 48 47 46 45 47 49 52 53 53 53 51 50 49 48 47 46 45 46 46 42 41 40 37 35 36 34 34 33 34 33 33 34 34 34 35 36 37 37 38 39 40 40 38 37 34 34 34 32 31 30 30
nan nan nan nan nan nan nan nan nan 77 nan nan 74 73 nan nan nan nan nan nan 57 nan nan nan nan 45 nan nan 50 51 50 49 50 51 52 52 51 50 50 49 49 50 52 54 54 54 53 54 53 52 51 50 51 49 46 45 44 44 43 41 39 37 36 36 36 36 37 38 37 37 38 40 41 40 40 42 42 40 40 39 37 35 33 33 34 33 34
nan nan nan nan nan nan nan nan 80 77 nan nan 74 73 74 76 nan nan nan 61 59 56 52 49 48 46 46 50 52 52 52 52 52 52 53 54 53 53 52 51 50 50 51 53 55 56 56 55 55 55 54 54 54 49 47 48 47 46 47 46 44 42 41 40 39 40 39 39 39 40 41 42 42 42 43 44 44 42 42 42 40 36 36 36 37 36 37
nan nan 89 nan nan nan nan nan nan 77 75 75 74 74 76 77 76 nan 70 65 63 60 55 52 50 49 47 50 54 55 55 55 54 53 53 54 54 54 54 52 50 48 47 49 51 54 55 54 54 55 57 56 54 51 50 50 51 51 51 51 50 48 48 48 48 47 45 43 42 41 41 41 41 42 43 44 45 46 44 41 39 38 38 41 40 39 37
nan nan nan nan nan nan nan nan nan nan 75 74 nan 73 76 78 79 77 72 68 68 66 61 56 52 54 54 53 55 56 57 55 54 53 51 51 52 53 52 52 51 50 48 48 48 49 50 50 50 51 53 54 54 53 53 53 54 55 55 54 53 53 52 51 51 49 47 48 45 42 41 40 40 42 42 43 43 44 42 38 36 37 38 38 40 39 38
nan nan nan nan nan nan nan nan nan nan nan 73 74 nan 77 82 82 74 68 67 68 69 66 61 58 59 60 59 57 56 56 56 55 54 51 50 49 49 50 51 52 52 50 49 48 48 48 46 47 48 49 50 52 53 54 53 52 53 54 54 52 51 48 46 45 45 45 44 42 41 41 40 40 40 40 41 41 41 41 43 42 42 42 41 42 42 46
nan nan nan nan nan nan 80 79 nan nan 68 70 76 73 76 nan nan nan nan nan 64 67 68 66 62 61 60 61 58 57 56 57 56 55 53 51 50 50 49 50 53 53 52 50 49 48 45 43 44 47 49 50 50 50 49 48 49 49 49 48 47 46 45 45 44 44 44 43 43 42 41 41 40 40 41 46 46 44 42 45 45 42 47 43 44 48 48
nan nan nan nan nan nan nan nan nan nan nan 65 77 75 72 nan nan nan nan nan nan 64 63 64 65 62 61 62 60 59 59 59 58 57 56 55 53 53 53 54 56 54 53 52 51 49 46 43 44 46 48 49 50 50 49 49 48 48 47 47 46 46 46 46 46 46 46 46 46 45 44 43 42 42 42 45 49 48 49 48 46 47 48 46 45 47 49
nan nan nan nan nan nan nan nan nan nan nan nan 71 71 nan nan nan nan nan nan nan nan nan nan 59 58 57 58 60 61 62 62 62 60 58 57 56 56 56 56 56 56 56 54 51 49 47 47 47 47 49 50 50 51 51 51 51 51 50 49 49 49 49 48 48 48 49 49 49 49 48 48 47 47 46 44 46 53 54 52 53 52 52 52 53 52 50
nan nan nan nan nan nan nan nan nan nan nan nan 64 68 63 62 nan nan nan nan nan nan nan nan nan 54 53 54 57 61 63 64 65 64 62 60 59 60 59 59 59 57 56 55 53 52 52 52 50 50 51 51 50 52 52 53 52 52 51 51 52 53 53 53 52 52 51 52 52 52 52 52 51 51 50 50 48 48 53 57 56 53 52 53 54 54 55
nan nan nan nan nan nan nan nan nan nan nan nan 59 66 64 64 nan nan nan nan nan nan nan nan nan 53 53 53 54 58 62 65 67 67 67 66 64 64 64 63 61 60 59 57 55 54 54 55 54 54 55 54 53 52 54 54 53 52 53 54 55 55 55 56 56 55 55 55 55 55 55 55 54 54 53 53 51 51 50 51 52 54 56 53 53 56 59
nan nan nan nan nan nan nan nan nan nan nan nan 52 61 63 nan nan nan nan nan nan nan nan nan nan nan nan nan 57 60 63 65 68 70 70 70 69 67 66 64 63 63 64 62 60 58 57 56 56 56 55 55 54 53 52 53 54 54 53 55 55 57 60 59 58 57 57 57 56 56 56 56 56 55 53 51 51 51 50 49 48 48 50 53 56 58 60
nan nan nan nan nan nan nan nan nan nan 43 nan 49 60 64 nan nan nan nan nan nan nan nan nan nan nan nan nan 63 64 67 69 70 70 70 70 69 67 67 67 66 65 65 65 63 61 60 59 59 58 56 55 55 54 53 53 55 56 56 56 56 56 57 58 58 59 59 59 58 56 56 56 56 55 53 52 51 50 50 49 48 48 49 57 66 70 65
nan nan nan nan nan nan nan 44 nan nan nan 45 52 57 nan nan nan nan nan nan nan nan nan nan nan nan nan nan nan 67 68 70 72 72 70 70 70 68 66 67 66 66 66 66 64 63 62 62 62 61 59 57 56 55 54 54 56 56 57 57 58 58 58 59 61 62 62 60 57 55 nan 54 55 54 54 nan nan nan nan nan nan nan nan nan nan 75 81
nan nan nan nan 42 nan nan nan nan nan 40 47 51 52 nan nan nan nan nan nan nan nan nan nan nan nan nan nan nan nan nan nan nan 71 70 71 72 70 67 64 64 65 66 67 66 65 66 65 64 62 59 55 54 53 54 54 56 58 59 60 60 59 60 61 63 62 59 55 53 51 51 53 54 nan nan nan nan nan nan nan nan nan nan nan nan nan nan
nan nan nan 39 40 nan nan nan nan 33 38 46 50 51 nan nan nan nan nan nan nan nan nan nan nan nan nan nan nan nan nan nan nan nan nan nan nan nan nan 68 nan 68 nan 68 68 67 67 66 63 59 54 52 51 51 53 55 57 59 61 62 63 64 63 61 60 57 53 50 50 49 51 nan nan nan nan nan nan nan nan nan nan nan nan nan nan nan nan
nan 15 20 35 41 33 27 nan nan 29 33 45 53 51 nan 53 52 nan nan 54 55 57 58 58 nan nan nan nan nan nan nan nan nan nan nan nan nan nan nan nan nan nan nan nan 62 62 62 62 60 55 50 49 50 52 53 56 57 58 58 58 58 59 60 56 56 55 51 50 49 49 50 nan nan nan nan nan nan nan 52 nan nan nan nan nan nan nan 37
nan 11 nan 30 37 30 nan nan 22 23 29 41 53 54 51 50 51 52 54 57 54 50 50 52 nan nan nan nan nan nan nan nan nan nan nan nan nan nan nan nan nan nan nan nan nan nan nan nan nan nan 49 50 51 52 52 53 55 55 55 54 54 55 56 57 54 52 52 50 50 50 51 52 nan nan nan nan nan nan 50 50 51 nan nan nan nan 39 nan
nan nan 17 21 28 23 nan 7 14 21 28 41 55 56 52 51 51 49 51 51 46 39 39 42 nan nan nan nan nan nan nan nan nan nan nan nan nan nan nan nan nan nan nan nan nan nan nan nan nan nan nan 51 51 nan 49 48 49 51 53 55 56 55 54 52 51 51 50 50 49 49 51 52 49 46 45 46 47 nan nan nan 48 nan nan nan 32 31 31
13 nan 16 17 24 23 nan 9 8 13 19 32 51 57 54 49 47 43 39 35 28 24 nan nan nan nan nan nan nan nan nan nan nan nan nan nan nan nan nan nan nan nan nan nan nan nan nan nan nan nan nan nan nan nan 49 48 49 49 52 55 57 57 55 52 51 50 50 49 48 48 50 49 47 45 44 43 43 42 41 41 42 nan nan nan 24 22 23
9 14 16 15 18 20 nan 10 8 11 14 25 45 57 53 44 41 37 30 22 19 19 20 nan nan nan nan nan nan nan nan nan nan nan nan nan nan nan nan nan nan nan nan nan nan nan nan nan nan nan nan nan nan 51 49 46 48 nan 52 54 57 56 54 51 50 50 49 49 48 48 49 48 45 43 42 41 40 38 39 39 40 40 36 30 27 24 22
6 9 16 19 19 16 9 7 8 8 11 22 nan 55 56 51 49 43 32 24 21 21 nan nan nan nan nan nan nan nan nan nan nan nan nan nan nan nan nan nan nan nan nan nan nan nan nan nan nan nan nan nan nan nan nan nan nan nan nan nan nan nan nan nan nan 50 50 49 48 47 46 45 43 41 41 39 38 38 38 39 40 40 37 34 31 nan 26
13 13 14 17 20 21 19 13 11 12 10 19 39 53 55 54 54 55 nan nan nan nan nan nan nan nan nan nan nan nan nan nan nan nan nan nan nan nan nan nan nan nan nan nan nan nan nan nan nan nan nan nan nan nan nan nan nan nan nan nan nan nan nan nan nan nan nan nan nan 44 43 42 40 38 38 nan nan nan 37 37 38 38 36 33 30 29 nan
nan nan 18 22 23 24 23 23 20 15 14 nan 25 34 41 44 46 47 48 nan nan nan nan nan nan nan nan nan nan nan nan nan nan nan nan nan nan nan nan nan nan nan nan nan nan nan nan nan nan nan nan nan nan nan nan nan nan nan nan nan nan nan nan nan nan nan nan nan nan nan nan nan 39 37 34 35 nan nan nan nan nan 37 36 34 33 31 nan
nan nan nan 22 nan nan nan nan nan 28 26 25 24 25 28 32 35 36 35 nan nan nan nan nan nan nan nan nan nan nan nan nan nan nan nan nan nan nan nan nan nan nan nan nan nan nan nan nan nan nan nan nan nan nan nan nan nan nan nan nan nan nan nan nan nan nan nan nan nan nan nan nan nan nan nan 34 nan nan nan nan nan nan nan nan nan nan nan
nan nan nan nan nan nan nan nan nan 30 nan 35 35 31 nan nan nan nan nan nan nan nan nan nan nan nan nan nan nan nan nan nan nan nan nan nan nan nan nan nan nan nan nan nan nan nan nan nan nan nan nan nan nan nan nan nan nan nan nan nan nan nan nan nan nan nan nan nan nan nan nan nan nan nan nan nan nan 34 35 37 nan nan nan nan nan nan nan
nan nan nan nan nan nan nan nan nan nan nan nan nan nan nan nan nan nan nan nan nan nan nan nan nan nan nan nan nan nan nan nan nan nan nan nan nan nan nan nan nan nan nan nan nan nan nan nan nan nan nan nan nan nan nan nan nan nan nan nan nan nan nan nan nan nan nan nan nan nan nan nan nan nan nan nan nan nan 37 nan nan nan nan nan nan nan nan
nan nan nan nan nan nan nan nan nan nan nan nan nan nan nan nan nan nan nan nan nan nan nan nan nan nan nan nan nan nan nan nan nan nan nan nan nan nan nan nan nan nan nan nan nan nan nan nan nan nan nan nan nan nan nan nan nan nan nan nan nan nan nan nan nan nan nan nan nan nan nan nan nan nan nan nan nan nan nan nan nan nan nan nan nan nan nan
nan nan nan nan nan nan nan nan nan nan nan nan nan nan nan nan nan nan nan nan nan nan nan nan nan nan nan nan nan nan nan nan nan nan nan nan nan nan nan nan nan nan nan nan nan nan nan nan nan nan nan nan nan nan nan nan nan nan nan nan nan nan nan nan nan nan nan nan nan nan nan nan nan nan nan nan nan nan nan nan nan nan nan nan nan nan nan
nan nan nan nan nan nan nan nan nan nan nan nan nan nan nan nan nan nan nan nan nan nan nan nan nan nan nan nan nan nan nan nan nan nan nan nan nan nan nan nan nan nan nan nan nan nan nan nan nan nan nan nan nan nan nan nan nan nan nan nan nan nan nan nan nan nan nan nan nan nan nan nan nan nan nan nan nan nan nan nan nan nan nan nan nan nan nan
nan nan nan nan nan nan nan nan nan nan nan nan nan nan nan nan nan nan nan nan nan nan nan nan nan nan nan nan nan nan nan nan nan nan nan nan nan nan nan nan nan nan nan nan nan nan nan nan nan nan nan nan nan nan nan nan nan nan nan nan nan nan nan nan nan nan nan nan nan nan nan nan nan nan nan nan nan nan nan nan nan nan nan nan nan nan nan
nan nan nan nan nan nan nan nan nan nan nan nan nan nan nan nan nan nan nan nan nan nan nan nan nan nan nan nan nan nan nan nan nan nan nan nan nan nan nan nan nan nan nan nan nan nan nan nan nan nan nan nan nan nan nan nan nan nan nan nan nan nan nan nan nan nan nan nan nan nan nan nan nan nan nan nan nan nan nan nan nan nan nan nan nan nan nan
nan nan nan nan nan nan nan nan nan nan nan nan nan nan nan nan nan nan nan nan nan nan nan nan nan nan nan nan nan nan nan nan nan nan nan nan nan nan nan nan nan nan nan nan nan nan nan nan nan nan nan nan nan nan nan nan nan nan nan nan nan nan nan nan nan nan nan nan nan nan nan nan nan nan nan nan nan nan nan nan nan nan nan nan nan nan nan
nan nan nan nan nan nan nan nan nan nan nan nan nan nan nan nan nan nan nan nan nan nan nan nan nan nan nan nan nan nan nan nan nan nan nan nan nan nan nan nan nan nan nan nan nan nan nan nan nan nan nan nan nan nan nan nan nan nan nan nan nan nan nan nan nan nan nan nan nan nan nan nan nan nan nan nan nan nan nan nan nan nan nan nan nan nan nan
nan nan nan nan nan nan nan nan nan nan nan nan nan nan nan nan nan nan nan nan nan nan nan nan nan nan nan nan nan nan nan nan nan nan nan nan nan nan nan nan nan nan nan nan nan nan nan nan nan nan nan nan nan nan nan nan nan nan nan nan nan nan nan nan nan nan nan nan nan nan nan nan nan nan nan nan nan nan nan nan nan nan nan nan nan nan nan
nan nan nan nan nan nan nan nan nan nan nan nan nan nan nan nan nan nan nan nan nan nan nan nan nan nan nan nan nan nan nan nan nan nan nan nan nan nan nan nan nan nan nan nan nan nan nan nan nan nan nan nan nan nan nan nan nan nan nan nan nan nan nan nan nan nan nan nan nan nan nan nan nan nan nan nan nan nan nan nan nan nan nan nan nan nan nan
nan nan nan nan nan nan nan nan nan nan nan nan nan nan nan nan nan nan nan nan nan nan nan nan nan nan nan nan nan nan nan nan nan nan nan nan nan nan nan nan nan nan nan nan nan nan nan nan nan nan nan nan nan nan nan nan nan nan nan nan nan nan nan nan nan nan nan nan nan nan nan nan nan nan nan nan nan nan nan nan nan nan nan nan nan nan nan
Wind_Direction
nan nan nan nan nan nan nan nan nan nan nan nan nan nan nan nan nan nan nan nan nan nan nan nan nan 193 196 nan nan nan nan nan nan nan nan nan nan nan 223 227 226 217 213 215 218 234 264 281 285 291 280 279 264 258 264 264 275 289 284 287 295 300 304 317 315 298 284 282 286 297 308 317 327 338 344 350 355 359 359 360 359 2 358 349 340 326 307
nan nan nan nan nan nan nan nan nan nan nan nan nan nan nan nan nan nan nan nan nan nan nan nan nan nan nan nan nan nan nan nan 205 nan nan nan nan nan nan 229 236 229 222 223 224 227 242 268 278 286 277 276 288 298 300 295 298 303 289 296 298 313 326 335 306 283 275 272 281 291 305 320 327 331 334 340 345 349 350 350 351 352 354 352 347 333 317
nan nan nan nan nan nan nan nan nan nan nan nan nan nan nan nan nan nan nan nan nan nan nan nan nan nan nan nan nan nan nan nan nan nan nan nan nan nan nan 215 221 224 225 226 230 229 235 257 277 281 283 287 290 313 304 307 306 303 304 295 304 320 339 326 297 285 279 283 285 298 313 315 321 328 329 327 335 341 344 344 346 344 347 352 346 334 325
nan nan nan nan nan nan nan nan nan nan nan nan nan nan nan nan nan nan nan nan nan nan nan nan nan nan nan nan nan nan nan nan nan nan nan 214 215 211 214 217 nan 222 223 227 234 235 233 248 264 270 273 276 281 303 307 309 307 301 300 301 311 314 315 289 290 294 296 295 299 307 306 313 313 319 322 325 329 334 334 339 336 336 346 347 340 338 326
nan nan nan nan nan nan nan nan nan nan nan nan nan nan nan nan nan nan nan nan nan nan nan nan nan nan nan nan nan nan nan nan nan nan nan nan 221 220 221 220 222 nan nan 224 230 223 223 240 259 280 279 276 279 292 298 298 281 288 296 304 298 293 285 294 298 296 295 302 310 306 309 306 301 302 313 321 325 324 329 325 327 339 343 340 342 341 339
nan nan nan nan nan nan nan nan nan nan nan nan nan nan nan nan nan nan nan nan nan nan nan nan nan nan nan nan nan nan nan nan 232 nan nan nan nan nan 221 221 218 223 228 220 217 218 219 231 254 262 269 274 271 274 266 253 260 265 269 276 277 271 269 278 286 290 295 305 314 314 306 303 300 303 312 326 326 319 317 322 330 337 344 342 334 346 348
nan nan nan nan nan nan nan nan nan nan nan nan nan nan nan nan nan nan nan nan nan nan nan nan nan nan nan 222 228 nan 223 223 223 227 230 234 233 228 227 227 224 224 224 221 217 213 213 222 235 250 264 271 259 258 263 271 271 268 263 266 261 261 264 269 272 278 287 297 305 306 306 305 304 307 315 318 323 322 324 330 334 339 340 340 343 350 348
nan nan nan nan nan nan nan nan nan nan nan nan nan nan nan nan nan nan nan nan nan nan nan nan nan nan 231 231 236 234 231 230 227 226 227 231 234 232 231 227 225 223 219 216 214 215 221 231 240 250 260 267 264 262 264 268 268 266 266 265 268 268 273 275 278 283 288 290 292 293 299 303 307 309 311 314 318 314 314 319 320 324 332 331 335 337 337
nan nan nan nan nan nan nan nan nan nan nan nan nan nan nan nan nan nan nan 235 233 227 nan nan nan nan nan nan 239 246 240 238 234 229 226 227 229 230 229 228 222 222 218 214 211 215 222 233 242 247 251 261 265 262 263 266 264 268 271 275 278 280 286 291 295 295 294 289 284 286 290 299 308 312 310 310 310 307 313 308 308 315 324 325 322 316 325
nan nan nan nan nan nan nan nan nan nan nan nan nan nan nan nan nan nan nan 234 233 229 226 225 nan nan nan nan nan 251 250 243 238 234 231 230 230 230 229 227 224 222 223 220 217 220 223 234 241 246 252 258 261 259 260 263 268 272 276 285 285 285 291 300 303 301 296 292 288 285 285 295 304 306 307 303 305 300 302 299 298 303 305 304 303 306 317
nan nan nan nan nan nan nan nan nan nan nan nan nan nan nan nan nan nan nan nan 232 232 229 226 nan nan nan nan nan 246 251 247 241 236 233 231 231 231 231 229 224 222 223 225 223 224 223 232 241 248 251 256 258 257 254 257 261 267 278 286 291 296 295 289 286 289 292 294 291 287 288 292 291 296 300 298 294 292 295 295 294 290 288 291 299 300 302
nan nan nan nan nan nan nan nan nan nan nan nan nan nan nan nan nan nan nan nan nan 232 232 231 236 nan nan nan nan 236 241 242 242 238 233 230 229 231 234 235 231 228 229 237 235 231 227 224 230 244 249 251 257 255 255 256 261 267 274 278 280 279 278 276 276 280 287 292 289 285 288 286 282 286 285 285 291 297 302 303 301 294 289 294 300 297 297
nan nan nan nan nan nan nan nan nan nan nan nan nan nan nan nan nan nan nan nan nan nan 234 237 242 nan 240 236 234 236 237 238 238 238 237 235 232 230 232 235 236 237 235 235 235 232 227 224 229 238 246 252 254 253 256 258 260 258 254 253 257 261 264 269 275 278 277 280 283 279 278 277 280 284 286 290 292 297 304 306 307 307 305 301 301 301 298
nan nan nan nan nan nan nan nan nan nan nan nan nan nan nan nan nan nan nan nan nan nan nan 236 239 241 241 239 239 239 240 239 239 238 237 237 236 235 233 235 241 242 240 238 238 236 231 230 232 237 241 247 250 252 254 255 253 253 255 258 259 262 267 272 275 277 278 278 280 275 273 275 282 288 287 289 292 297 299 303 309 305 300 301 299 301 298
nan nan nan nan nan nan nan 234 nan 236 nan nan nan nan nan nan nan nan nan nan nan nan nan 232 237 241 245 245 243 241 240 239 239 238 238 238 238 236 234 237 241 244 243 241 239 239 236 234 233 238 245 244 245 250 252 245 244 251 258 261 262 265 269 273 276 278 278 281 279 274 274 279 285 287 285 288 291 293 298 300 303 307 306 296 298 300 292
nan nan nan nan nan nan nan 224 nan 235 235 nan nan nan nan nan nan nan nan nan nan nan nan nan 235 242 nan nan 246 245 243 241 240 240 240 240 240 240 239 237 237 242 244 244 242 240 240 239 237 235 241 244 243 245 244 245 248 253 259 264 265 267 268 270 272 273 275 278 278 277 279 280 283 285 286 287 289 290 296 298 299 296 293 296 295 292 291
nan nan nan nan nan nan nan nan nan 228 nan nan 239 239 nan nan nan nan nan nan 230 nan nan nan nan 239 nan nan 246 246 245 243 241 241 242 242 242 242 241 240 238 239 242 245 246 244 242 242 242 242 242 245 245 244 244 246 249 253 257 261 266 271 273 273 274 275 276 277 280 281 282 285 286 285 286 285 287 290 293 295 295 291 293 292 291 293 289
nan nan nan nan nan nan nan nan 226 228 nan nan 238 239 240 241 nan nan nan 234 233 230 229 233 232 234 239 244 246 247 246 245 243 243 243 244 245 244 245 245 243 243 243 244 246 248 246 244 244 243 245 246 247 246 247 249 251 253 257 260 261 262 263 266 270 273 276 279 282 284 285 285 286 285 286 287 288 291 293 293 293 294 292 291 289 290 286
nan nan 227 nan nan nan nan nan nan 227 229 233 236 239 241 242 241 nan 238 237 237 235 231 228 231 233 235 240 244 246 246 246 245 245 244 245 246 247 247 247 248 247 246 245 244 246 248 247 247 246 247 248 249 250 250 252 254 254 256 258 259 259 260 261 263 265 267 269 271 273 277 279 279 281 282 284 286 287 290 292 293 291 291 291 292 292 293
nan nan nan nan nan nan nan nan nan nan 230 233 nan 237 241 243 243 241 240 240 241 240 238 231 227 231 233 236 239 243 245 246 246 245 245 245 247 249 250 250 250 249 248 247 246 246 247 248 250 250 250 250 252 253 254 255 256 257 257 257 260 260 261 260 259 260 262 263 263 265 268 271 272 275 277 280 283 286 287 290 290 289 289 291 291 295 297
nan nan nan nan nan nan nan nan nan nan nan 235 235 nan 241 243 243 241 242 244 244 243 242 238 231 228 230 232 234 239 243 245 245 245 246 246 248 249 250 249 249 250 249 248 247 247 248 249 251 253 253 254 254 254 254 256 258 259 259 260 260 260 259 258 257 256 255 258 260 262 264 266 269 270 273 276 280 280 283 283 287 289 289 288 289 291 289
nan nan nan nan nan nan 227 227 nan nan 231 236 237 234 237 nan nan nan nan nan 246 246 246 244 239 232 229 228 231 236 240 243 244 244 246 247 248 249 250 251 251 251 250 250 249 249 249 249 251 252 253 254 254 254 254 254 254 256 258 259 260 258 257 256 255 255 255 257 259 262 266 269 270 271 271 269 267 267 270 269 264 263 264 276 279 282 284
nan nan nan nan nan nan nan nan nan nan nan 231 239 234 235 nan nan nan nan nan nan 247 248 248 246 241 235 230 230 234 238 240 242 244 245 247 248 249 250 253 253 253 252 252 251 251 250 250 251 252 252 252 253 253 253 255 256 257 258 259 260 261 261 261 260 261 262 264 265 267 269 269 271 272 272 275 278 278 277 273 271 266 265 266 266 264 273
nan nan nan nan nan nan nan nan nan nan nan nan 237 237 nan nan nan nan nan nan nan nan nan nan 247 244 240 235 232 233 237 239 241 242 242 244 245 248 251 252 253 254 253 252 251 249 248 247 249 250 251 250 251 253 255 257 259 260 262 263 263 264 264 265 265 265 267 268 270 271 272 273 275 275 274 273 272 277 277 275 274 274 273 272 274 277 277
nan nan nan nan nan nan nan nan nan nan nan nan 232 239 234 237 nan nan nan nan nan nan nan nan nan 241 238 235 235 235 236 237 239 240 240 242 242 245 247 248 250 251 251 248 245 243 242 241 243 246 248 248 249 252 253 255 256 258 260 263 265 266 266 267 268 269 269 270 271 272 273 274 275 276 278 277 277 274 276 278 279 279 280 280 283 285 286
nan nan nan nan nan nan nan nan nan nan nan nan 229 237 235 235 nan nan nan nan nan nan nan nan nan 237 237 236 235 234 235 236 237 239 241 241 241 241 242 245 247 248 247 245 241 238 237 238 240 243 244 244 246 250 253 254 256 258 260 262 262 263 263 264 265 266 267 268 269 270 271 273 274 275 276 278 277 277 275 275 276 277 278 282 285 288 289
nan nan nan nan nan nan nan nan nan nan nan nan 228 238 236 nan nan nan nan nan nan nan nan nan nan nan nan nan 235 233 233 234 237 238 240 240 239 238 240 243 245 245 245 245 242 239 238 239 240 241 241 241 245 249 254 256 257 258 260 261 262 262 260 262 264 265 266 267 268 268 269 270 271 272 274 274 274 274 275 276 277 278 278 281 283 283 285
nan nan nan nan nan nan nan nan nan nan 211 nan 227 234 235 nan nan nan nan nan nan nan nan nan nan nan nan nan 233 231 230 232 235 237 239 240 239 239 240 242 243 243 244 244 243 241 241 241 242 243 243 243 246 251 255 256 257 258 259 260 262 263 265 265 267 269 271 271 270 270 270 270 270 271 273 275 276 276 277 279 278 277 278 278 277 275 274
nan nan nan nan nan nan nan 188 nan nan nan 211 218 226 nan nan nan nan nan nan nan nan nan nan nan nan nan nan nan 231 230 230 233 235 237 238 237 238 239 241 243 244 244 244 244 245 245 245 246 247 247 247 249 252 255 256 257 258 259 261 263 265 266 268 271 274 274 273 271 270 nan 270 270 271 274 nan nan nan nan nan nan nan nan nan nan 281 278
nan nan nan nan 161 nan nan nan nan nan 209 212 216 220 nan nan nan nan nan nan nan nan nan nan nan nan nan nan nan nan nan nan nan 234 237 239 238 238 239 241 244 245 245 245 245 246 247 248 249 249 248 248 249 252 254 257 259 261 262 262 264 265 268 270 274 276 274 271 269 269 269 269 270 nan nan nan nan nan nan nan nan nan nan nan nan nan nan
nan nan nan 166 168 nan nan nan nan 201 212 210 210 216 nan nan nan nan nan nan nan nan nan nan nan nan nan nan nan nan nan nan nan nan nan nan nan nan nan 238 nan 242 nan 246 246 246 247 249 249 249 248 249 251 253 255 258 261 263 264 265 266 267 267 269 272 272 271 270 270 270 270 nan nan nan nan nan nan nan nan nan nan nan nan nan nan nan nan
nan 131 159 174 177 177 178 nan nan 207 214 210 208 211 nan 221 220 nan nan 224 224 224 224 224 nan nan nan nan nan nan nan nan nan nan nan nan nan nan nan nan nan nan nan nan 246 247 247 248 248 248 249 250 252 255 258 260 263 265 266 266 266 267 267 266 268 268 269 271 272 271 271 nan nan nan nan nan nan nan 277 nan nan nan nan nan nan nan 307
nan 145 nan 177 185 193 nan nan 209 222 225 211 202 204 209 214 213 215 222 227 225 217 214 216 nan nan nan nan nan nan nan nan nan nan nan nan nan nan nan nan nan nan nan nan nan nan nan nan nan nan 249 251 255 258 260 262 264 265 266 266 267 267 267 266 265 267 268 269 270 271 271 271 nan nan nan nan nan nan 280 282 281 nan nan nan nan 293 nan
nan nan 162 185 200 206 nan 222 215 230 223 209 200 201 206 209 210 213 218 222 222 214 206 210 nan nan nan nan nan nan nan nan nan nan nan nan nan nan nan nan nan nan nan nan nan nan nan nan nan nan nan 254 258 nan 263 265 267 266 266 266 267 267 267 266 265 265 266 266 267 268 270 271 273 274 274 274 276 nan nan nan 281 nan nan nan 287 284 278
159 nan 152 176 195 208 nan 276 273 256 240 213 203 201 204 207 210 211 212 210 210 203 nan nan nan nan nan nan nan nan nan nan nan nan nan nan nan nan nan nan nan nan nan nan nan nan nan nan nan nan nan nan nan nan 265 268 269 269 267 266 266 266 265 264 262 262 263 264 265 266 267 269 272 273 272 273 277 279 280 278 276 nan nan nan 287 284 278
155 163 162 169 189 208 nan 229 252 267 260 228 213 209 207 204 209 210 208 208 207 205 204 nan nan nan nan nan nan nan nan nan nan nan nan nan nan nan nan nan nan nan nan nan nan nan nan nan nan nan nan nan nan 260 262 265 269 nan 266 263 263 263 263 262 261 261 261 261 263 266 268 270 270 269 270 272 273 274 275 274 274 277 281 284 283 280 274
146 180 187 188 191 196 199 203 190 193 233 230 nan 213 212 219 222 219 221 216 216 228 nan nan nan nan nan nan nan nan nan nan nan nan nan nan nan nan nan nan nan nan nan nan nan nan nan nan nan nan nan nan nan nan nan nan nan nan nan nan nan nan nan nan nan 261 261 262 263 265 267 269 269 268 268 269 270 270 270 272 271 273 276 281 286 nan 275
181 188 196 195 189 193 194 181 155 160 202 224 222 219 222 230 234 232 nan nan nan nan nan nan nan nan nan nan nan nan nan nan nan nan nan nan nan nan nan nan nan nan nan nan nan nan nan nan nan nan nan nan nan nan nan nan nan nan nan nan nan nan nan nan nan nan nan nan nan 264 265 264 265 265 266 nan nan nan 268 268 271 273 276 279 283 282 nan
nan nan 181 178 183 191 199 195 188 190 188 nan 216 225 231 241 244 243 241 nan nan nan nan nan nan nan nan nan nan nan nan nan nan nan nan nan nan nan nan nan nan nan nan nan nan nan nan nan nan nan nan nan nan nan nan nan nan nan nan nan nan nan nan nan nan nan nan nan nan nan nan nan 259 260 262 265 nan nan nan nan nan 272 275 278 278 277 nan
nan nan nan 183 nan nan nan nan nan 188 185 184 192 201 219 232 240 243 242 nan nan nan nan nan nan nan nan nan nan nan nan nan nan nan nan nan nan nan nan nan nan nan nan nan nan nan nan nan nan nan nan nan nan nan nan nan nan nan nan nan nan nan nan nan nan nan nan nan nan nan nan nan nan nan nan 258 nan nan nan nan nan nan nan nan nan nan nan
nan nan nan nan nan nan nan nan nan 185 nan 190 190 193 nan nan nan nan nan nan nan nan nan nan nan nan nan nan nan nan nan nan nan nan nan nan nan nan nan nan nan nan nan nan nan nan nan nan nan nan nan nan nan nan nan nan nan nan nan nan nan nan nan nan nan nan nan nan nan nan nan nan nan nan nan nan nan 261 263 266 nan nan nan nan nan nan nan
nan nan nan nan nan nan nan nan nan nan nan nan nan nan nan nan nan nan nan nan nan nan nan nan nan nan nan nan nan nan nan nan nan nan nan nan nan nan nan nan nan nan nan nan nan nan nan nan nan nan nan nan nan nan nan nan nan nan nan nan nan nan nan nan nan nan nan nan nan nan nan nan nan nan nan nan nan nan 264 nan nan nan nan nan nan nan nan
nan nan nan nan nan nan nan nan nan nan nan nan nan nan nan nan nan nan nan nan nan nan nan nan nan nan nan nan nan nan nan nan nan nan nan nan nan nan nan nan nan nan nan nan nan nan nan nan nan nan nan nan nan nan nan nan nan nan nan nan nan nan nan nan nan nan nan nan nan nan nan nan nan nan nan nan nan nan nan nan nan nan nan nan nan nan nan
nan nan nan nan nan nan nan nan nan nan nan nan nan nan nan nan nan nan nan nan nan nan nan nan nan nan nan nan nan nan nan nan nan nan nan nan nan nan nan nan nan nan nan nan nan nan nan nan nan nan nan nan nan nan nan nan nan nan nan nan nan nan nan nan nan nan nan nan nan nan nan nan nan nan nan nan nan nan nan nan nan nan nan nan nan nan nan
nan nan nan nan nan nan nan nan nan nan nan nan nan nan nan nan nan nan nan nan nan nan nan nan nan nan nan nan nan nan nan nan nan nan nan nan nan nan nan nan nan nan nan nan nan nan nan nan nan nan nan nan nan nan nan nan nan nan nan nan nan nan nan nan nan nan nan nan nan nan nan nan nan nan nan nan nan nan nan nan nan nan nan nan nan nan nan
nan nan nan nan nan nan nan nan nan nan nan nan nan nan nan nan nan nan nan nan nan nan nan nan nan nan nan nan nan nan nan nan nan nan nan nan nan nan nan nan nan nan nan nan nan nan nan nan nan nan nan nan nan nan nan nan nan nan nan nan nan nan nan nan nan nan nan nan nan nan nan nan nan nan nan nan nan nan nan nan nan nan nan nan nan nan nan
nan nan nan nan nan nan nan nan nan nan nan nan nan nan nan nan nan nan nan nan nan nan nan nan nan nan nan nan nan nan nan nan nan nan nan nan nan nan nan nan nan nan nan nan nan nan nan nan nan nan nan nan nan nan nan nan nan nan nan nan nan nan nan nan nan nan nan nan nan nan nan nan nan nan nan nan nan nan nan nan nan nan nan nan nan nan nan
nan nan nan nan nan nan nan nan nan nan nan nan nan nan nan nan nan nan nan nan nan nan nan nan nan nan nan nan nan nan nan nan nan nan nan nan nan nan nan nan nan nan nan nan nan nan nan nan nan nan nan nan nan nan nan nan nan nan nan nan nan nan nan nan nan nan nan nan nan nan nan nan nan nan nan nan nan nan nan nan nan nan nan nan nan nan nan
nan nan nan nan nan nan nan nan nan nan nan nan nan nan nan nan nan nan nan nan nan nan nan nan nan nan nan nan nan nan nan nan nan nan nan nan nan nan nan nan nan nan nan nan nan nan nan nan nan nan nan nan nan nan nan nan nan nan nan nan nan nan nan nan nan nan nan nan nan nan nan nan nan nan nan nan nan nan nan nan nan nan nan nan nan nan nan
nan nan nan nan nan nan nan nan nan nan nan nan nan nan nan nan nan nan nan nan nan nan nan nan nan nan nan nan nan nan nan nan nan nan nan nan nan nan nan nan nan nan nan nan nan nan nan nan nan nan nan nan nan nan nan nan nan nan nan nan nan nan nan nan nan nan nan nan nan nan nan nan nan nan nan nan nan nan nan nan nan nan nan nan nan nan nan
nan nan nan nan nan nan nan nan nan nan nan nan nan nan nan nan nan nan nan nan nan nan nan nan nan nan nan nan nan nan nan nan nan nan nan nan nan nan nan nan nan nan nan nan nan nan nan nan nan nan nan nan nan nan nan nan nan nan nan nan nan nan nan nan nan nan nan nan nan nan nan nan nan nan nan nan nan nan nan nan nan nan nan nan nan nan nan
nan nan nan nan nan nan nan nan nan nan nan nan nan nan nan nan nan nan nan nan nan nan nan nan nan nan nan nan nan nan nan nan nan nan nan nan nan nan nan nan nan nan nan nan nan nan nan nan nan nan nan nan nan nan nan nan nan nan nan nan nan nan nan nan nan nan nan nan nan nan nan nan nan nan nan nan nan nan nan nan nan nan nan nan nan nan nan